Time,TemperatureF,DewpointF,PressureIn,WindDirection,WindDirectionDegrees,WindSpeedMPH,WindSpeedGustMPH,Humidity,HourlyPrecipIn,Conditions,Clouds,dailyrainin,SoftwareType,DateUTC
2013-03-11 00:00:00,52.6,28.3,30.07,ESE,123,2.0,2.0,39,0.00,,,0.00,Wunderground v.1.15,2013-03-11 04:00:00,
2013-03-11 00:05:00,52.5,28.2,30.06,ESE,117,3.0,5.0,39,0.00,,,0.00,Wunderground v.1.15,2013-03-11 04:05:00,
2013-03-11 00:10:00,52.1,28.5,30.07,ESE,105,3.0,3.0,40,0.00,,,0.00,Wunderground v.1.15,2013-03-11 04:10:00,
2013-03-11 00:15:00,51.8,27.6,30.06,ESE,109,2.0,5.0,39,0.00,,,0.00,Wunderground v.1.15,2013-03-11 04:15:00,
2013-03-11 00:20:00,52.0,27.8,30.06,SE,131,4.0,5.0,39,0.00,,,0.00,Wunderground v.1.15,2013-03-11 04:20:00,
2013-03-11 00:25:00,52.0,27.8,30.07,SE,131,4.0,5.0,39,0.00,,,0.00,Wunderground v.1.15,2013-03-11 04:25:00,
2013-03-11 00:30:00,51.8,27.6,30.05,ESE,119,5.0,8.0,39,0.00,,,0.00,Wunderground v.1.15,2013-03-11 04:30:00,
2013-03-11 00:35:00,51.6,28.0,30.05,SE,141,6.0,13.0,40,0.00,,,0.00,Wunderground v.1.15,2013-03-11 04:35:00,
2013-03-11 00:45:00,51.2,28.3,30.05,ESE,113,6.0,6.0,41,0.00,,,0.00,Wunderground v.1.15,2013-03-11 04:45:00,
2013-03-11 00:50:00,51.0,28.1,30.04,SE,133,5.0,13.0,41,0.00,,,0.00,Wunderground v.1.15,2013-03-11 04:50:00,
2013-03-11 00:55:00,50.8,27.9,30.03,ESE,119,6.0,13.0,41,0.00,,,0.00,Wunderground v.1.15,2013-03-11 04:55:00,
2013-03-11 01:00:00,51.0,27.5,30.03,SE,137,6.0,6.0,40,0.00,,,0.00,Wunderground v.1.15,2013-03-11 05:00:00,
2013-03-11 01:05:00,51.3,27.2,30.04,SE,144,6.0,13.0,39,0.00,,,0.00,Wunderground v.1.15,2013-03-11 05:05:00,
2013-03-11 01:10:00,51.5,27.3,30.03,SE,129,7.0,13.0,39,0.00,,,0.00,Wunderground v.1.15,2013-03-11 05:10:00,
2013-03-11 01:20:00,51.6,27.4,30.05,South,169,7.0,7.0,39,0.00,,,0.00,Wunderground v.1.15,2013-03-11 05:20:00,
2013-03-11 01:25:00,51.7,27.5,30.03,SE,128,5.0,13.0,39,0.00,,,0.00,Wunderground v.1.15,2013-03-11 05:25:00,
2013-03-11 01:30:00,51.5,27.3,30.04,ESE,118,6.0,6.0,39,0.00,,,0.00,Wunderground v.1.15,2013-03-11 05:30:00,
2013-03-11 01:35:00,51.3,27.2,30.06,SSE,161,4.0,13.0,39,0.00,,,0.00,Wunderground v.1.15,2013-03-11 05:35:00,
2013-03-11 01:40:00,51.2,27.7,30.04,ESE,113,1.0,13.0,40,0.00,,,0.00,Wunderground v.1.15,2013-03-11 05:40:00,
2013-03-11 01:50:00,51.0,27.5,30.03,ENE,69,3.0,3.0,40,0.00,,,0.00,Wunderground v.1.15,2013-03-11 05:50:00,
2013-03-11 01:55:00,50.9,27.4,30.02,ESE,111,3.0,6.0,40,0.00,,,0.00,Wunderground v.1.15,2013-03-11 05:55:00,
2013-03-11 02:00:00,50.8,27.3,30.03,SE,138,4.0,13.0,40,0.00,,,0.00,Wunderground v.1.15,2013-03-11 06:00:00,
2013-03-11 02:05:00,50.8,27.3,30.06,South,171,4.0,13.0,40,0.00,,,0.00,Wunderground v.1.15,2013-03-11 06:05:00,
2013-03-11 02:10:00,50.9,28.0,30.05,ESE,120,3.0,13.0,41,0.00,,,0.00,Wunderground v.1.15,2013-03-11 06:10:00,
2013-03-11 02:20:00,50.3,28.1,30.05,ESE,123,3.0,13.0,42,0.00,,,0.00,Wunderground v.1.15,2013-03-11 06:20:00,
2013-03-11 02:25:00,50.3,27.5,30.05,SE,140,3.0,13.0,41,0.00,,,0.00,Wunderground v.1.15,2013-03-11 06:25:00,
2013-03-11 02:30:00,50.3,27.5,30.04,East,101,1.0,13.0,41,0.00,,,0.00,Wunderground v.1.15,2013-03-11 06:30:00,
2013-03-11 02:35:00,50.3,28.1,30.04,SE,126,2.0,13.0,42,0.00,,,0.00,Wunderground v.1.15,2013-03-11 06:35:00,
2013-03-11 02:40:00,50.2,28.0,30.04,SE,126,4.0,13.0,42,0.00,,,0.00,Wunderground v.1.15,2013-03-11 06:40:00,
2013-03-11 02:45:00,50.3,28.1,30.04,SE,130,5.0,13.0,42,0.00,,,0.00,Wunderground v.1.15,2013-03-11 06:45:00,
2013-03-11 02:50:00,50.3,27.5,30.04,ESE,109,3.0,13.0,41,0.00,,,0.00,Wunderground v.1.15,2013-03-11 06:50:00,
2013-03-11 02:55:00,50.4,28.1,30.03,SE,130,4.0,13.0,42,0.00,,,0.00,Wunderground v.1.15,2013-03-11 06:55:00,
2013-03-11 03:00:00,50.4,27.6,30.03,SE,135,6.0,9.0,41,0.00,,,0.00,Wunderground v.1.15,2013-03-11 07:00:00,
2013-03-11 03:10:00,50.5,28.8,30.03,SE,141,5.0,5.0,43,0.00,,,0.00,Wunderground v.1.15,2013-03-11 07:10:00,
2013-03-11 03:15:00,50.0,28.9,30.02,SE,134,6.0,6.0,44,0.00,,,0.00,Wunderground v.1.15,2013-03-11 07:15:00,
2013-03-11 03:20:00,49.6,28.6,30.02,SE,132,6.0,9.0,44,0.00,,,0.00,Wunderground v.1.15,2013-03-11 07:20:00,
2013-03-11 03:25:00,49.5,28.5,30.02,ESE,122,6.0,9.0,44,0.00,,,0.00,Wunderground v.1.15,2013-03-11 07:25:00,
2013-03-11 03:30:00,49.5,28.5,30.02,ESE,119,6.0,6.0,44,0.00,,,0.00,Wunderground v.1.15,2013-03-11 07:30:00,
2013-03-11 03:35:00,49.4,28.9,30.01,SE,145,5.0,9.0,45,0.00,,,0.00,Wunderground v.1.15,2013-03-11 07:35:00,
2013-03-11 03:40:00,49.3,28.8,30.02,SE,138,5.0,9.0,45,0.00,,,0.00,Wunderground v.1.15,2013-03-11 07:40:00,
2013-03-11 03:50:00,49.6,28.6,30.02,SE,135,5.0,5.0,44,0.00,,,0.00,Wunderground v.1.15,2013-03-11 07:50:00,
2013-03-11 03:55:00,49.8,28.7,30.03,ESE,117,4.0,8.0,44,0.00,,,0.00,Wunderground v.1.15,2013-03-11 07:55:00,
2013-03-11 04:00:00,50.0,28.4,30.02,SE,132,4.0,9.0,43,0.00,,,0.00,Wunderground v.1.15,2013-03-11 08:00:00,
2013-03-11 04:10:00,50.1,28.4,30.00,SE,127,7.0,9.0,43,0.00,,,0.00,Wunderground v.1.15,2013-03-11 08:10:00,
2013-03-11 04:15:00,50.2,28.5,30.00,East,86,7.0,9.0,43,0.00,,,0.00,Wunderground v.1.15,2013-03-11 08:15:00,
2013-03-11 04:25:00,50.1,29.0,29.99,ENE,76,3.0,9.0,44,0.00,,,0.00,Wunderground v.1.15,2013-03-11 08:25:00,
2013-03-11 04:30:00,49.9,28.8,30.00,NE,51,2.0,2.0,44,0.00,,,0.00,Wunderground v.1.15,2013-03-11 08:30:00,
2013-03-11 04:35:00,49.8,28.7,29.99,East,98,3.0,8.0,44,0.00,,,0.00,Wunderground v.1.15,2013-03-11 08:35:00,
2013-03-11 04:45:00,49.8,28.7,29.99,East,80,3.0,9.0,44,0.00,,,0.00,Wunderground v.1.15,2013-03-11 08:45:00,
2013-03-11 04:50:00,49.8,28.7,29.99,East,81,3.0,3.0,44,0.00,,,0.00,Wunderground v.1.15,2013-03-11 08:50:00,
2013-03-11 04:55:00,49.9,28.3,30.00,ESE,114,3.0,9.0,43,0.00,,,0.00,Wunderground v.1.15,2013-03-11 08:55:00,
2013-03-11 05:05:00,50.3,28.6,30.00,ESE,123,3.0,9.0,43,0.00,,,0.00,Wunderground v.1.15,2013-03-11 09:05:00,
2013-03-11 05:10:00,50.4,28.7,29.99,ESE,122,3.0,9.0,43,0.00,,,0.00,Wunderground v.1.15,2013-03-11 09:10:00,
2013-03-11 05:20:00,50.2,28.5,30.00,ESE,121,1.0,9.0,43,0.00,,,0.00,Wunderground v.1.15,2013-03-11 09:20:00,
2013-03-11 05:25:00,50.1,28.4,29.99,ESE,120,0.0,9.0,43,0.00,,,0.00,Wunderground v.1.15,2013-03-11 09:25:00,
2013-03-11 05:30:00,50.1,29.0,29.99,ESE,122,0.0,9.0,44,0.00,,,0.00,Wunderground v.1.15,2013-03-11 09:30:00,
2013-03-11 05:35:00,50.0,28.9,29.99,SE,132,2.0,9.0,44,0.00,,,0.00,Wunderground v.1.15,2013-03-11 09:35:00,
2013-03-11 05:40:00,50.1,29.0,30.00,ESE,109,3.0,3.0,44,0.00,,,0.00,Wunderground v.1.15,2013-03-11 09:40:00,
2013-03-11 05:45:00,50.2,29.1,29.99,SE,128,2.0,10.0,44,0.00,,,0.00,Wunderground v.1.15,2013-03-11 09:45:00,
2013-03-11 05:55:00,50.7,29.0,30.00,SE,129,4.0,10.0,43,0.00,,,0.00,Wunderground v.1.15,2013-03-11 09:55:00,
2013-03-11 06:00:00,50.8,29.1,29.99,SE,138,3.0,9.0,43,0.00,,,0.00,Wunderground v.1.15,2013-03-11 10:00:00,
2013-03-11 06:10:00,50.7,29.0,29.99,SE,135,6.0,6.0,43,0.00,,,0.00,Wunderground v.1.15,2013-03-11 10:10:00,
2013-03-11 06:20:00,50.3,28.6,29.98,SE,132,8.0,11.0,43,0.00,,,0.00,Wunderground v.1.15,2013-03-11 10:20:00,
2013-03-11 06:30:00,50.0,28.9,29.98,SE,136,11.0,11.0,44,0.00,,,0.00,Wunderground v.1.15,2013-03-11 10:30:00,
2013-03-11 06:35:00,49.8,28.7,29.98,SE,144,10.0,11.0,44,0.00,,,0.00,Wunderground v.1.15,2013-03-11 10:35:00,
2013-03-11 06:45:00,50.1,28.4,29.98,SE,146,10.0,12.0,43,0.00,,,0.00,Wunderground v.1.15,2013-03-11 10:45:00,
2013-03-11 06:55:00,49.9,28.8,29.98,SSE,154,8.0,15.0,44,0.00,,,0.00,Wunderground v.1.15,2013-03-11 10:55:00,
2013-03-11 07:00:00,49.8,28.7,29.98,SE,135,7.0,11.0,44,0.00,,,0.00,Wunderground v.1.15,2013-03-11 11:00:00,
2013-03-11 07:10:00,49.8,28.2,29.98,SSE,156,8.0,9.0,43,0.00,,,0.00,Wunderground v.1.15,2013-03-11 11:10:00,
2013-03-11 07:15:00,49.8,28.2,29.98,SE,128,7.0,9.0,43,0.00,,,0.00,Wunderground v.1.15,2013-03-11 11:15:00,
2013-03-11 07:25:00,49.7,28.1,29.98,SE,131,8.0,11.0,43,0.00,,,0.00,Wunderground v.1.15,2013-03-11 11:25:00,
2013-03-11 07:35:00,49.8,28.2,29.98,SE,130,7.0,10.0,43,0.00,,,0.00,Wunderground v.1.15,2013-03-11 11:35:00,
2013-03-11 07:40:00,49.8,28.2,29.98,ESE,116,7.0,7.0,43,0.00,,,0.00,Wunderground v.1.15,2013-03-11 11:40:00,
2013-03-11 07:50:00,49.8,28.2,29.99,ESE,117,7.0,9.0,43,0.00,,,0.00,Wunderground v.1.15,2013-03-11 11:50:00,
2013-03-11 07:55:00,49.7,28.1,29.98,SE,130,7.0,9.0,43,0.00,,,0.00,Wunderground v.1.15,2013-03-11 11:55:00,
2013-03-11 08:05:00,49.7,28.1,29.99,ESE,115,7.0,7.0,43,0.00,,,0.00,Wunderground v.1.15,2013-03-11 12:05:00,
2013-03-11 08:10:00,49.7,28.1,29.98,ESE,120,7.0,8.0,43,0.00,,,0.00,Wunderground v.1.15,2013-03-11 12:10:00,
2013-03-11 08:15:00,49.7,28.6,29.99,SE,140,7.0,8.0,44,0.00,,,0.00,Wunderground v.1.15,2013-03-11 12:15:00,
2013-03-11 08:25:00,49.7,28.6,29.99,SE,126,6.0,9.0,44,0.00,,,0.00,Wunderground v.1.15,2013-03-11 12:25:00,
2013-03-11 08:30:00,49.6,28.6,29.99,East,98,7.0,7.0,44,0.00,,,0.00,Wunderground v.1.15,2013-03-11 12:30:00,
2013-03-11 08:35:00,49.6,28.6,30.00,SE,136,6.0,7.0,44,0.00,,,0.00,Wunderground v.1.15,2013-03-11 12:35:00,
2013-03-11 08:40:00,49.6,28.6,30.00,SE,124,4.0,4.0,44,0.00,,,0.00,Wunderground v.1.15,2013-03-11 12:40:00,
2013-03-11 08:45:00,49.6,28.6,30.00,SE,132,3.0,7.0,44,0.00,,,0.00,Wunderground v.1.15,2013-03-11 12:45:00,
2013-03-11 08:50:00,49.7,28.6,30.00,SE,128,2.0,2.0,44,0.00,,,0.00,Wunderground v.1.15,2013-03-11 12:50:00,
2013-03-11 08:55:00,49.7,28.6,30.01,ESE,115,1.0,7.0,44,0.00,,,0.00,Wunderground v.1.15,2013-03-11 12:55:00,
2013-03-11 09:00:00,49.8,28.7,30.00,ESE,110,2.0,2.0,44,0.00,,,0.00,Wunderground v.1.15,2013-03-11 13:00:00,
2013-03-11 09:10:00,50.0,28.9,30.01,ENE,58,1.0,2.0,44,0.00,,,0.00,Wunderground v.1.15,2013-03-11 13:10:00,
2013-03-11 09:15:00,49.9,28.8,30.01,ENE,78,1.0,2.0,44,0.00,,,0.00,Wunderground v.1.15,2013-03-11 13:15:00,
2013-03-11 09:25:00,50.0,28.9,30.01,East,88,2.0,3.0,44,0.00,,,0.00,Wunderground v.1.15,2013-03-11 13:25:00,
2013-03-11 09:30:00,50.1,29.0,30.01,East,101,2.0,2.0,44,0.00,,,0.00,Wunderground v.1.15,2013-03-11 13:30:00,
2013-03-11 09:35:00,50.3,29.7,30.02,East,90,1.0,12.0,45,0.00,,,0.00,Wunderground v.1.15,2013-03-11 13:35:00,
2013-03-11 09:40:00,50.5,29.4,30.01,East,86,0.0,12.0,44,0.00,,,0.00,Wunderground v.1.15,2013-03-11 13:40:00,
2013-03-11 09:45:00,50.7,29.6,30.01,ESE,121,1.0,12.0,44,0.00,,,0.00,Wunderground v.1.15,2013-03-11 13:45:00,
2013-03-11 09:55:00,51.2,30.0,30.01,ESE,119,3.0,12.0,44,0.00,,,0.00,Wunderground v.1.15,2013-03-11 13:55:00,
2013-03-11 10:00:00,51.5,30.3,30.01,SE,129,4.0,12.0,44,0.00,,,0.00,Wunderground v.1.15,2013-03-11 14:00:00,
2013-03-11 10:05:00,51.5,30.3,30.01,ESE,121,5.0,12.0,44,0.00,,,0.00,Wunderground v.1.15,2013-03-11 14:05:00,
2013-03-11 10:10:00,51.7,29.9,30.01,ESE,117,5.0,5.0,43,0.00,,,0.00,Wunderground v.1.15,2013-03-11 14:10:00,
2013-03-11 10:15:00,51.8,30.0,30.01,SE,131,4.0,12.0,43,0.00,,,0.00,Wunderground v.1.15,2013-03-11 14:15:00,
2013-03-11 10:20:00,52.0,30.2,30.01,SSE,152,3.0,3.0,43,0.00,,,0.00,Wunderground v.1.15,2013-03-11 14:20:00,
2013-03-11 10:25:00,52.0,30.2,30.01,SE,134,2.0,12.0,43,0.00,,,0.00,Wunderground v.1.15,2013-03-11 14:25:00,
2013-03-11 10:35:00,52.0,30.2,30.01,SE,129,4.0,6.0,43,0.00,,,0.00,Wunderground v.1.15,2013-03-11 14:35:00,
2013-03-11 10:40:00,51.7,30.5,30.01,ESE,123,5.0,5.0,44,0.00,,,0.00,Wunderground v.1.15,2013-03-11 14:40:00,
2013-03-11 10:45:00,51.7,30.5,30.01,SE,139,6.0,6.0,44,0.00,,,0.00,Wunderground v.1.15,2013-03-11 14:45:00,
2013-03-11 10:50:00,51.6,30.4,30.00,SE,129,6.0,6.0,44,0.00,,,0.00,Wunderground v.1.15,2013-03-11 14:50:00,
2013-03-11 10:55:00,51.7,30.5,29.99,ESE,117,6.0,12.0,44,0.00,,,0.00,Wunderground v.1.15,2013-03-11 14:55:00,
2013-03-11 11:00:00,51.8,30.6,29.99,SE,139,7.0,7.0,44,0.00,,,0.00,Wunderground v.1.15,2013-03-11 15:00:00,
2013-03-11 11:05:00,52.0,31.3,29.99,SE,136,6.0,12.0,45,0.00,,,0.00,Wunderground v.1.15,2013-03-11 15:05:00,
2013-03-11 11:10:00,52.2,30.9,29.99,SE,132,5.0,12.0,44,0.00,,,0.00,Wunderground v.1.15,2013-03-11 15:10:00,
2013-03-11 11:20:00,52.5,31.2,29.99,SSE,157,6.0,6.0,44,0.00,,,0.00,Wunderground v.1.15,2013-03-11 15:20:00,
2013-03-11 11:25:00,52.6,31.3,29.98,ESE,120,7.0,7.0,44,0.00,,,0.00,Wunderground v.1.15,2013-03-11 15:25:00,
2013-03-11 11:30:00,52.6,31.3,29.98,SE,141,7.0,12.0,44,0.00,,,0.00,Wunderground v.1.15,2013-03-11 15:30:00,
2013-03-11 11:35:00,52.7,31.9,29.98,ESE,121,7.0,12.0,45,0.00,,,0.00,Wunderground v.1.15,2013-03-11 15:35:00,
2013-03-11 11:40:00,52.9,32.1,29.97,SE,129,8.0,8.0,45,0.00,,,0.00,Wunderground v.1.15,2013-03-11 15:40:00,
2013-03-11 11:45:00,52.9,32.1,29.97,SE,133,8.0,11.0,45,0.00,,,0.00,Wunderground v.1.15,2013-03-11 15:45:00,
2013-03-11 11:50:00,52.9,32.1,29.97,SE,130,8.0,16.0,45,0.00,,,0.00,Wunderground v.1.15,2013-03-11 15:50:00,
2013-03-11 12:00:00,52.6,31.8,29.98,SE,134,9.0,9.0,45,0.00,,,0.00,Wunderground v.1.15,2013-03-11 16:00:00,
2013-03-11 12:10:00,52.5,32.3,29.98,SE,140,6.0,6.0,46,0.00,,,0.00,Wunderground v.1.15,2013-03-11 16:10:00,
2013-03-11 12:15:00,52.9,32.1,29.98,SSE,151,6.0,6.0,45,0.00,,,0.00,Wunderground v.1.15,2013-03-11 16:15:00,
2013-03-11 12:20:00,53.3,32.5,29.97,SE,131,7.0,7.0,45,0.00,,,0.00,Wunderground v.1.15,2013-03-11 16:20:00,
2013-03-11 12:30:00,53.8,32.4,29.97,SE,138,4.0,4.0,44,0.00,,,0.00,Wunderground v.1.15,2013-03-11 16:30:00,
2013-03-11 12:35:00,54.2,32.7,29.98,SSE,151,3.0,14.0,44,0.00,,,0.00,Wunderground v.1.15,2013-03-11 16:35:00,
2013-03-11 12:40:00,54.2,32.7,29.98,SE,135,3.0,3.0,44,0.00,,,0.00,Wunderground v.1.15,2013-03-11 16:40:00,
2013-03-11 12:50:00,54.4,32.9,29.98,SE,140,3.0,3.0,44,0.00,,,0.00,Wunderground v.1.15,2013-03-11 16:50:00,
2013-03-11 12:55:00,54.6,32.5,29.98,SE,143,2.0,4.0,43,0.00,,,0.00,Wunderground v.1.15,2013-03-11 16:55:00,
2013-03-11 13:00:00,54.8,33.3,29.98,SSW,201,2.0,2.0,44,0.00,,,0.00,Wunderground v.1.15,2013-03-11 17:00:00,
2013-03-11 13:05:00,55.0,32.3,29.97,SSE,155,2.0,14.0,42,0.00,,,0.00,Wunderground v.1.15,2013-03-11 17:05:00,
2013-03-11 13:15:00,55.5,33.3,29.97,SE,145,1.0,14.0,43,0.00,,,0.00,Wunderground v.1.15,2013-03-11 17:15:00,
2013-03-11 13:20:00,55.8,33.0,29.97,SE,130,1.0,14.0,42,0.00,,,0.00,Wunderground v.1.15,2013-03-11 17:20:00,
2013-03-11 13:25:00,56.0,33.2,29.96,SE,128,2.0,14.0,42,0.00,,,0.00,Wunderground v.1.15,2013-03-11 17:25:00,
2013-03-11 13:35:00,56.2,33.4,29.95,SW,218,5.0,14.0,42,0.00,,,0.00,Wunderground v.1.15,2013-03-11 17:35:00,
2013-03-11 13:40:00,56.0,33.2,29.95,SE,143,7.0,14.0,42,0.00,,,0.00,Wunderground v.1.15,2013-03-11 17:40:00,
2013-03-11 13:50:00,54.6,33.7,29.94,ESE,119,8.0,14.0,45,0.00,,,0.00,Wunderground v.1.15,2013-03-11 17:50:00,
2013-03-11 13:55:00,54.4,33.5,29.94,SE,127,8.0,14.0,45,0.00,,,0.00,Wunderground v.1.15,2013-03-11 17:55:00,
2013-03-11 14:00:00,54.8,33.8,29.93,SE,126,7.0,7.0,45,0.00,,,0.00,Wunderground v.1.15,2013-03-11 18:00:00,
2013-03-11 14:05:00,54.9,34.5,29.93,SE,145,6.0,14.0,46,0.00,,,0.00,Wunderground v.1.15,2013-03-11 18:05:00,
2013-03-11 14:10:00,54.8,34.4,29.92,SE,126,8.0,14.0,46,0.00,,,0.00,Wunderground v.1.15,2013-03-11 18:10:00,
2013-03-11 14:15:00,54.4,34.0,29.92,SSE,150,8.0,14.0,46,0.00,,,0.00,Wunderground v.1.15,2013-03-11 18:15:00,
2013-03-11 14:25:00,53.4,33.7,29.91,SE,130,11.0,15.0,47,0.00,,,0.00,Wunderground v.1.15,2013-03-11 18:25:00,
2013-03-11 14:30:00,53.5,33.7,29.90,SE,138,12.0,14.0,47,0.00,,,0.00,Wunderground v.1.15,2013-03-11 18:30:00,
2013-03-11 14:35:00,53.5,33.7,29.90,SSE,157,11.0,14.0,47,0.00,,,0.00,Wunderground v.1.15,2013-03-11 18:35:00,
2013-03-11 14:40:00,53.6,33.8,29.89,SSE,149,10.0,16.0,47,0.00,,,0.00,Wunderground v.1.15,2013-03-11 18:40:00,
2013-03-11 14:45:00,53.6,33.8,29.90,SE,133,11.0,16.0,47,0.00,,,0.00,Wunderground v.1.15,2013-03-11 18:45:00,
2013-03-11 14:50:00,53.7,34.5,29.90,SE,142,11.0,11.0,48,0.00,,,0.00,Wunderground v.1.15,2013-03-11 18:50:00,
2013-03-11 15:00:00,53.5,34.3,29.90,SSE,156,8.0,8.0,48,0.00,,,0.00,Wunderground v.1.15,2013-03-11 19:00:00,
2013-03-11 15:10:00,53.4,34.2,29.90,SE,137,7.0,13.0,48,0.00,,,0.00,Wunderground v.1.15,2013-03-11 19:10:00,
2013-03-11 15:15:00,53.3,34.1,29.90,SSE,147,7.0,13.0,48,0.00,,,0.00,Wunderground v.1.15,2013-03-11 19:15:00,
2013-03-11 15:25:00,53.5,34.3,29.88,SE,133,6.0,9.0,48,0.00,,,0.00,Wunderground v.1.15,2013-03-11 19:25:00,
2013-03-11 15:30:00,53.9,34.1,29.88,ESE,110,7.0,12.0,47,0.00,,,0.00,Wunderground v.1.15,2013-03-11 19:30:00,
2013-03-11 15:40:00,54.4,34.6,29.88,SSE,161,10.0,20.0,47,0.00,,,0.00,Wunderground v.1.15,2013-03-11 19:40:00,
2013-03-11 15:45:00,54.4,34.6,29.87,SE,146,11.0,20.0,47,0.00,,,0.00,Wunderground v.1.15,2013-03-11 19:45:00,
2013-03-11 15:55:00,54.5,34.7,29.86,SE,138,11.0,20.0,47,0.00,,,0.00,Wunderground v.1.15,2013-03-11 19:55:00,
2013-03-11 16:00:00,54.5,34.1,29.86,SSE,148,11.0,11.0,46,0.00,,,0.00,Wunderground v.1.15,2013-03-11 20:00:00,
2013-03-11 16:10:00,55.0,34.0,29.85,SE,128,11.0,20.0,45,0.00,,,0.00,Wunderground v.1.15,2013-03-11 20:10:00,
2013-03-11 16:20:00,54.9,33.9,29.85,SE,141,11.0,11.0,45,0.00,,,0.00,Wunderground v.1.15,2013-03-11 20:20:00,
2013-03-11 16:25:00,54.6,33.1,29.85,SSE,149,10.0,20.0,44,0.00,,,0.00,Wunderground v.1.15,2013-03-11 20:25:00,
2013-03-11 16:35:00,54.8,32.7,29.86,SE,137,10.0,20.0,43,0.00,,,0.00,Wunderground v.1.15,2013-03-11 20:35:00,
2013-03-11 16:40:00,55.0,32.9,29.85,SE,130,10.0,20.0,43,0.00,,,0.00,Wunderground v.1.15,2013-03-11 20:40:00,
2013-03-11 16:45:00,55.3,32.6,29.85,SSE,150,10.0,20.0,42,0.00,,,0.00,Wunderground v.1.15,2013-03-11 20:45:00,
2013-03-11 16:55:00,55.4,32.7,29.85,SE,128,8.0,20.0,42,0.00,,,0.00,Wunderground v.1.15,2013-03-11 20:55:00,
2013-03-11 17:00:00,55.4,33.3,29.85,SE,125,8.0,8.0,43,0.00,,,0.00,Wunderground v.1.15,2013-03-11 21:00:00,
2013-03-11 17:10:00,55.1,33.6,29.86,ESE,117,8.0,20.0,44,0.00,,,0.00,Wunderground v.1.15,2013-03-11 21:10:00,
2013-03-11 17:15:00,54.9,33.9,29.85,ESE,120,8.0,20.0,45,0.00,,,0.00,Wunderground v.1.15,2013-03-11 21:15:00,
2013-03-11 17:25:00,54.6,34.2,29.85,SE,128,10.0,20.0,46,0.00,,,0.00,Wunderground v.1.15,2013-03-11 21:25:00,
2013-03-11 17:30:00,54.5,34.1,29.85,ESE,108,8.0,8.0,46,0.00,,,0.00,Wunderground v.1.15,2013-03-11 21:30:00,
2013-03-11 17:40:00,54.2,33.9,29.85,SE,130,7.0,20.0,46,0.00,,,0.00,Wunderground v.1.15,2013-03-11 21:40:00,
2013-03-11 17:50:00,54.1,33.8,29.84,SE,128,8.0,20.0,46,0.00,,,0.00,Wunderground v.1.15,2013-03-11 21:50:00,
2013-03-11 18:00:00,54.2,33.3,29.84,SSE,147,10.0,13.0,45,0.00,,,0.00,Wunderground v.1.15,2013-03-11 22:00:00,
2013-03-11 18:10:00,54.3,32.8,29.83,SSE,154,10.0,10.0,44,0.00,,,0.00,Wunderground v.1.15,2013-03-11 22:10:00,
2013-03-11 18:15:00,54.4,32.9,29.83,SSE,148,10.0,10.0,44,0.00,,,0.00,Wunderground v.1.15,2013-03-11 22:15:00,
2013-03-11 18:25:00,54.7,32.6,29.83,SE,130,6.0,12.0,43,0.00,,,0.00,Wunderground v.1.15,2013-03-11 22:25:00,
2013-03-11 18:30:00,54.6,31.9,29.83,SSE,162,5.0,6.0,42,0.00,,,0.00,Wunderground v.1.15,2013-03-11 22:30:00,
2013-03-11 18:40:00,54.4,31.8,29.81,South,169,8.0,17.0,42,0.00,,,0.00,Wunderground v.1.15,2013-03-11 22:40:00,
2013-03-11 18:50:00,54.7,31.4,29.81,SSE,155,13.0,13.0,41,0.00,,,0.00,Wunderground v.1.15,2013-03-11 22:50:00,
2013-03-11 19:00:00,54.0,32.0,29.83,SE,144,9.0,9.0,43,0.00,,,0.00,Wunderground v.1.15,2013-03-11 23:00:00,
2013-03-11 19:10:00,54.0,32.0,29.82,SSE,166,7.0,17.0,43,0.00,,,0.00,Wunderground v.1.15,2013-03-11 23:10:00,
2013-03-11 19:20:00,53.9,31.9,29.82,SE,134,11.0,27.0,43,0.00,,,0.00,Wunderground v.1.15,2013-03-11 23:20:00,
2013-03-11 19:25:00,53.9,32.5,29.82,SE,133,13.0,27.0,44,0.00,,,0.00,Wunderground v.1.15,2013-03-11 23:25:00,
2013-03-11 19:35:00,53.8,32.4,29.81,South,175,14.0,16.0,44,0.00,,,0.00,Wunderground v.1.15,2013-03-11 23:35:00,
2013-03-11 19:45:00,54.0,32.6,29.79,SE,126,15.0,21.0,44,0.00,,,0.00,Wunderground v.1.15,2013-03-11 23:45:00,
2013-03-11 19:50:00,53.6,32.2,29.80,SSE,154,16.0,16.0,44,0.00,,,0.00,Wunderground v.1.15,2013-03-11 23:50:00,
2013-03-11 19:55:00,53.6,32.8,29.80,SE,136,14.0,17.0,45,0.00,,,0.00,Wunderground v.1.15,2013-03-11 23:55:00,
2013-03-11 20:05:00,53.3,33.6,29.79,South,184,14.0,21.0,47,0.00,,,0.00,Wunderground v.1.15,2013-03-12 00:05:00,
2013-03-11 20:15:00,53.0,34.8,29.79,SSE,149,14.0,20.0,50,0.00,,,0.00,Wunderground v.1.15,2013-03-12 00:15:00,
2013-03-11 20:20:00,53.0,35.3,29.79,SE,127,14.0,17.0,51,0.00,,,0.00,Wunderground v.1.15,2013-03-12 00:20:00,
2013-03-11 20:30:00,52.7,36.0,29.78,SSE,160,14.0,14.0,53,0.00,,,0.00,Wunderground v.1.15,2013-03-12 00:30:00,
2013-03-11 20:40:00,52.3,36.1,29.79,South,190,16.0,16.0,54,0.00,,,0.00,Wunderground v.1.15,2013-03-12 00:40:00,
2013-03-11 20:50:00,52.4,36.7,29.79,SW,215,17.0,22.0,55,0.00,,,0.00,Wunderground v.1.15,2013-03-12 00:50:00,
2013-03-11 21:00:00,52.5,37.7,29.78,South,174,18.0,20.0,57,0.00,,,0.00,Wunderground v.1.15,2013-03-12 01:00:00,
2013-03-11 21:10:00,52.7,38.3,29.78,SSE,165,19.0,20.0,58,0.00,,,0.00,Wunderground v.1.15,2013-03-12 01:10:00,
2013-03-11 21:20:00,53.2,39.2,29.77,SSE,167,20.0,20.0,59,0.00,,,0.00,Wunderground v.1.15,2013-03-12 01:20:00,
2013-03-11 21:25:00,53.1,39.1,29.77,South,171,21.0,21.0,59,0.00,,,0.00,Wunderground v.1.15,2013-03-12 01:25:00,
2013-03-11 21:30:00,53.1,39.6,29.77,SSE,157,21.0,21.0,60,0.00,,,0.00,Wunderground v.1.15,2013-03-12 01:30:00,
2013-03-11 21:35:00,53.0,39.9,29.76,SSE,148,21.0,31.0,61,0.00,,,0.00,Wunderground v.1.15,2013-03-12 01:35:00,
2013-03-11 21:45:00,52.7,40.5,29.75,SSE,147,21.0,31.0,63,0.00,,,0.00,Wunderground v.1.15,2013-03-12 01:45:00,
2013-03-11 21:50:00,52.6,40.4,29.74,SSE,159,20.0,31.0,63,0.00,,,0.00,Wunderground v.1.15,2013-03-12 01:50:00,
2013-03-11 21:55:00,52.8,41.0,29.74,SSE,150,20.0,31.0,64,0.00,,,0.00,Wunderground v.1.15,2013-03-12 01:55:00,
2013-03-11 22:00:00,52.6,40.8,29.74,SSE,150,18.0,31.0,64,0.00,,,0.00,Wunderground v.1.15,2013-03-12 02:00:00,
2013-03-11 22:05:00,53.0,41.1,29.75,SSW,198,17.0,31.0,64,0.00,,,0.00,Wunderground v.1.15,2013-03-12 02:05:00,
2013-03-11 22:10:00,52.8,41.0,29.75,SSE,155,16.0,16.0,64,0.00,,,0.00,Wunderground v.1.15,2013-03-12 02:10:00,
2013-03-11 22:15:00,52.6,41.2,29.76,SE,138,12.0,31.0,65,0.00,,,0.00,Wunderground v.1.15,2013-03-12 02:15:00,
2013-03-11 22:20:00,52.9,41.8,29.75,SSW,213,11.0,31.0,66,0.00,,,0.00,Wunderground v.1.15,2013-03-12 02:20:00,
2013-03-11 22:25:00,53.5,42.4,29.76,South,178,13.0,31.0,66,0.00,,,0.00,Wunderground v.1.15,2013-03-12 02:25:00,
2013-03-11 22:30:00,53.6,42.1,29.77,SSE,151,14.0,14.0,65,0.00,,,0.00,Wunderground v.1.15,2013-03-12 02:30:00,
2013-03-11 22:40:00,53.5,42.0,29.78,SSE,163,14.0,31.0,65,0.00,,,0.00,Wunderground v.1.15,2013-03-12 02:40:00,
2013-03-11 22:45:00,53.2,42.1,29.78,SE,137,14.0,31.0,66,0.00,,,0.00,Wunderground v.1.15,2013-03-12 02:45:00,
2013-03-11 22:50:00,52.9,41.8,29.78,SE,136,12.0,12.0,66,0.00,,,0.00,Wunderground v.1.15,2013-03-12 02:50:00,
2013-03-11 22:55:00,53.1,42.4,29.78,SSE,151,14.0,14.0,67,0.00,,,0.00,Wunderground v.1.15,2013-03-12 02:55:00,
2013-03-11 23:00:00,53.3,42.2,29.78,ESE,103,17.0,17.0,66,0.00,,,0.00,Wunderground v.1.15,2013-03-12 03:00:00,
2013-03-11 23:05:00,53.1,42.4,29.78,SE,144,17.0,31.0,67,0.00,,,0.00,Wunderground v.1.15,2013-03-12 03:05:00,
2013-03-11 23:10:00,52.9,42.2,29.77,South,171,16.0,16.0,67,0.00,,,0.00,Wunderground v.1.15,2013-03-12 03:10:00,
2013-03-11 23:20:00,52.8,42.1,29.77,SE,134,15.0,31.0,67,0.00,,,0.00,Wunderground v.1.15,2013-03-12 03:20:00,
2013-03-11 23:25:00,52.8,42.1,29.76,SSE,166,15.0,31.0,67,0.00,,,0.00,Wunderground v.1.15,2013-03-12 03:25:00,
2013-03-11 23:30:00,53.1,42.4,29.77,SE,134,16.0,31.0,67,0.00,,,0.00,Wunderground v.1.15,2013-03-12 03:30:00,
2013-03-11 23:35:00,52.9,42.2,29.77,South,172,17.0,31.0,67,0.00,,,0.00,Wunderground v.1.15,2013-03-12 03:35:00,
2013-03-11 23:40:00,53.0,42.3,29.77,SE,138,17.0,17.0,67,0.00,,,0.00,Wunderground v.1.15,2013-03-12 03:40:00,
2013-03-11 23:50:00,53.3,42.6,29.77,SE,130,18.0,18.0,67,0.00,,,0.00,Wunderground v.1.15,2013-03-12 03:50:00,
2013-03-11 23:55:00,53.1,42.0,29.77,ESE,108,17.0,31.0,66,0.00,,,0.00,Wunderground v.1.15,2013-03-12 03:55:00,